Weather in Zhernovka

Russia / Novosibirsk Oblast     54°20′05″N   84°41′24″E
temp.,
°C
wind,
m/s
gust,
m/s
humid.,
%
clouds,
%
prec.,
mm/h
press.,
hPa
HPBL,
m
27 february, sat
sat2701:00−23sw41194100 0.3 1038769
04:00−24sw4996100 0.1 1038665
07:00−24sw3997100 0.3 1039572
10:00−23sw4895100 0.2 1039582
13:00−21sw4991100 0.3 1039762
16:00−19sw4789100 0.1 1039813
19:00−21sw2696100 0.2 1039230
22:00−25ssw2210096 0.0 104025
28 february, sun
sun2801:00−27ssw2210080 0.0 104019
04:00−28s1210042 0.0 104019
07:00−29sse229967 0.0 104019
10:00−25sse2510058 0.0 1039169
13:00−17s479178 0.0 1036370
16:00−14sse488692 0.0 1032421
19:00−15sse398996 0.0 1029296
22:00−13sse41095100 0.8 1026374
1 march, mon
mon101:00−10sse41095100 1.9 1022496
04:00−9s41195100 1.3 1019869
07:00−8s51195100 3.2 1015964
10:00−6ssw61295100 2.1 1012958
13:00−4ssw71493100 4.3 1011907
16:00−3sw81593100 0.8 10091024
19:00−3sw81693100 1.3 1009950
22:00−3sw61396100 1.9 1010690
2 march, tue
tue201:00−2wsw61296100 3.5 1012795
04:00−3wsw51195100 0.9 1014830
07:00−7w3796100 1.6 1017350
10:00−9w3695100 0.4 1018342
13:00−7sw3693100 0.7 1018538
16:00−7sw3492100 0.3 1018534
19:00−8sw1295100 0.4 101642
22:00−11ese1196100 0.1 101621
3 march, wed
wed301:00−9e1297100 0.2 101341
04:00−8ne2396100 1.0 1011102
07:00−8ne2496100 2.2 1011154
10:00−8nnw1195100 0.6 1012154
13:00−6wsw3593100 0.9 1014561
16:00−6wsw4694100 0.6 1015641
19:00−9w3696100 1.1 1017284
22:00−12wsw3895100 0.4 1020383